Regional Weather Roundup
Issued by NWS Northern Indiana

Home | Current Version | Previous Version | Text Only | Print | Product List | Glossary On
Versions: 1 2 3 4 5 6 7 8 9 10 11 12 13 14 15 16 17 18 19 20 21 22 23 24 25 26 27 28 29 30 31 32 33 34 35 36 37 38 39 40 41 42 43 44 45 46 47 48 49 50
000
ASUS43 KIWX 271310
RWRIWX

KIWX WEATHER ROUNDUP
NATIONAL WEATHER SERVICE NORTHERN INDIANA
900 AM EDT TUE SEP 27 2016

NOTE: "FAIR" INDICATES FEW OR NO CLOUDS BELOW 12,000 FEET WITH NO
SIGNIFICANT WEATHER AND/OR OBSTRUCTIONS TO VISIBILITY.

* THESE STATIONS ARE NOT UNDER NWS QUALITY CONTROL. THEY ALSO MAY NOT
  REPORT WEATHER SUCH AS PRECIPITATION OR FOG.

INZ001>027-271400-
NORTHERN INDIANA

CITY           SKY/WX    TMP DP  RH WIND       PRES   REMARKS
GARY*          SUNNY     55  41  58 W9        29.86S
VALPARAISO     SUNNY     50  43  77 SW10      29.86F
MICHIGAN CITY* SUNNY     52  43  71 MISG      29.85S
LAPORTE*       SUNNY     53  48  86 SW8       29.86S
KNOX*          SUNNY     50  28  43 SW9       29.87S
SOUTH BEND     SUNNY     50  43  77 SW10      29.85S
ELKHART*       SUNNY    N/A N/A N/A SW9       29.83S
GOSHEN         SUNNY     51  42  71 SW12      29.84F
MONTICELLO*    SUNNY     52  40  65 SW6       29.90S
LOGANSPORT*    SUNNY     52  45  76 SW8       29.91S
ROCHESTER*     SUNNY     54  45  71 W9        29.88F
WARSAW*        SUNNY     52  41  66 W10G16    29.87S
ANGOLA*          N/A     52  43  71 SW8       29.83F
FORT WAYNE     SUNNY     54  42  64 SW12      29.89S
HUNTINGTON*    SUNNY     55  43  65 W9        29.89S
PERU/GRISSOM   SUNNY     55  44  68 SW13      29.89S
MARION*        SUNNY     54  42  64 W9        29.92S HAZE

$$
INZ028>050-271400-
CENTRAL INDIANA

CITY           SKY/WX    TMP DP  RH WIND       PRES   REMARKS
LAFAYETTE      SUNNY     51  46  83 SW6       29.92S
MUNCIE*        SUNNY     57  43  59 SW8       29.93S
INDIANAPOLIS   SUNNY     53  46  77 SW9       29.96F

$$
MIZ043>046-050>051-056>058-064>065-071>073-077>080-271400-
SOUTHWEST LOWER MICHIGAN

CITY           SKY/WX    TMP DP  RH WIND       PRES   REMARKS
BATTLE CREEK   SUNNY     52  44  74 SW12      29.78S
BENTON HARBOR  SUNNY     61  43  51 W20G30    29.79F
COLDWATER*     SUNNY     52  40  62 SW9       29.81F
HILLSDALE*     SUNNY     52  39  62 SW8       29.81F
HOLLAND        MOSUNNY   61  45  55 W16G28    29.74F
GRAND RAPIDS   MOSUNNY   54  45  71 SW12      29.73F
KALAMAZOO      SUNNY     55  43  63 SW10      29.79S
STURGIS*       SUNNY     51  42  71 SW9       29.82S
THREE RIVERS*  FAIR      53  44  71 SW8       29.81F

$$
OHZ001>008-015>018-024>025-271400-
NORTHWEST OHIO

CITY           SKY/WX    TMP DP  RH WIND       PRES   REMARKS
WAUSEON*       FAIR      54  43  66 SW12      29.84F
DEFIANCE       SUNNY     56  41  57 SW10      29.86F
FINDLAY        SUNNY     56  41  57 SW12      29.88S
TOLEDO EXPRESS SUNNY     52  43  71 SW10      29.85S
TOLEDO METCALF SUNNY     55  43  63 SW13      29.86F
LIMA           SUNNY     53  43  68 SW12      29.90F

$$
AND FOR LAKE MICHIGAN COASTAL AND OPEN LAKE BUOY OBSERVATIONS

STATION/POSITION TEMP    WIND        PRES    VSBY  WAVE
                 AIR SEA DIR/SP/G                  HT/PER
                 (F)     (DEG/KT/KT) (MB)    (MI)  (FT/S)
CALUMET HARBOR    55     220/  6/ 11 1010.3F
MICHIGAN CITY     60     230/ 24/ 28   N/A
BURNS HARBOR      57     230/ 13/ 17 1011.2F
SAINT JOSEPH      62     260/ 21/ 25 1009.5
SOUTH LAKE BUOY   60 70  260/ 25/ 29 1006.6F         6/ 5
4 MI NW BRIDGMAN  63 66  270/ 21/ 27 1009.4          8/ 6
MICHIGAN CITY     61 67  270/ 19/ 23   N/A           5/ 5

$$
&&



USA.gov is the U.S. government's official web portal to all federal, state and local government web resources and services.